Starlink 5660

operational
NORAD ID: 55335 Int'l Des: 2023-013 Owner: SPXS Country: US Constellation: starlink
LEOCIRCULAR

About Starlink 5660

Description loading...

Live Position

Loading 3D Globe...

Upcoming Passes

Altitude History

Altitude vs Time

uPlot chart will show altitude changes over time

Two-Line Element Set

1 55335U 23013E 26033.30762982 .00000562 00000-0 56705-4 0 9991
2 55335 43.0034 132.8825 0001208 260.9924 99.0781 15.02537660166382
Epoch: Feb 2, 2026 • Age: 18 hours

Current Status

Altitude 561.2 km
Velocity 7.58 km/s
Sub-Earth Point -13.20°S, 162.68°E
Launch Date Jan 26, 2023
Age 3 years
Type internet

Technical Details

Classification Payload
Mass 305.00 kg
Dry Mass 290.00 kg
Total Mass 305.00 kg
Length 0.20 m
Diameter 2.80 m
Span 9.00 m
Shape Box + pan
Manufacturer SPXS
Bus Type Starlink
Phase Status In Orbit
Owner/State SPXS/US

Large Constellations

Loading constellations...